sat.trackr.live / text

‹ back to catalog

YUNHAI-2 01F

NORAD 43915 · 2018-112G

PAYLOAD ACTIVE UNKNOWN

§ Identity

Operator
Country
PRC
Launch date
2018-12-29
Launch site
JSC
Launch vehicle
Mass (kg)
RCS (m²)

External: N2YO · Heavens-Above · Gunter

§ Orbital elements

Epoch: 2026-05-25T00:35:10.680288Z

Period
100.77 min
Inclination
50.0125°
Eccentricity
0.0006923
Mean motion
14.29019031 rev/d
Perigee alt
790.0 km
Apogee alt
800.0 km
Semi-major
7,173.1 km
B*
1.6207e-4
RAAN
325.9733°
Arg perigee
244.6511°
Mean anomaly
115.3688°
Rev number
38,499

§ Raw data

YUNHAI-2 01F1 43915U 18112G   26145.02442917  .00000251  00000+0  16207-3 0  99982 43915  50.0125 325.9733 0006923 244.6511 115.3688 14.29019031384997

JSON: /api/v1/satellites/43915 · /tle

For live sub-satellite position, see the globe view (requires WebGL).

§ Visibility from observer

Set your observer location to see the next 7 days of passes ≥ 10°. The values pass through the URL so the page stays shareable.

No JS? Fill the form by hand. The geolocation button needs JavaScript.